User: anonymous
Location: Unspecified
(0.0000°N, 0.0000°E)
Time: 19:08:51
(UTC+00:00)
Language:

OPTUS D3 - Orbit

View from above orbital plane
View from above orbital plane
View from above satellite
View from above satellite

Ground track
Ground track

The orbit data is extracted from the following two-line orbital elements,

1 35756U 09044B   14243.76464273 -.00000158  00000-0  10000-3 0  1469
2 35756 000.0547 336.6641 0002426 170.7525 263.7290 01.00272548 18450
Epoch (UTC): 31 August 2014 18:21:05
Eccentricity: 0.0002426
inclination: 0.0547°
perigee height: 35776 km
apogee height: 35796 km
right ascension of ascending node: 336.6641°
argument of perigee: 170.7525°
revolutions per day: 1.00272548
mean anomaly at epoch: 263.7290°
orbit number at epoch: 1845

The dashed part of the orbit path shows where the satellite is in the earth's shadow,  

DLR